Weather Roundup
Issued by NWS Chicago, IL

Home | Current Version | Previous Version | Graphics & Text | Print | Product List | Glossary On
Versions: 1 2 3 4 5 6 7 8 9 10 11 12 13 14 15 16 17 18 19 20 21 22 23 24 25 26 27 28 29 30 31 32 33 34 35 36 37 38 39 40 41 42 43 44 45 46 47 48 49 50
667
NZUS59 KLOT 201208
HRRLOT

CHICAGO AREA WEATHER ROUNDUP
NATIONAL WEATHER SERVICE CHICAGO/ROMEOVILLE IL
600 AM CST FRI JAN 20 2017

NOTE: "FAIR" INDICATES FEW OR NO CLOUDS BELOW 12,000 FEET WITH NO
SIGNIFICANT WEATHER AND/OR OBSTRUCTIONS TO VISIBILITY.

* THESE STATIONS ARE NOT UNDER NWS QUALITY CONTROL. THEY ALSO MAY NOT
  REPORT WEATHER SUCH AS PRECIPITATION OR FOG.

ILZ005-006-012>014-019>023-201300-
NORTHEAST ILLINOIS

CITY           SKY/WX    TMP DP  RH WIND       PRES   REMARKS
OHARE          LGT RAIN  38  37  97 NE9       29.62F FOG
6HR MIN TEMP:  38; 6HR MAX TEMP:  39; 6HR PCP:  0.16;

MIDWAY         LGT RAIN  37  37 100 NE10      29.62F FOG
6HR MIN TEMP:  37; 6HR MAX TEMP:  38; 6HR PCP:  0.18;

AURORA         CLOUDY    39  37  92 NE9       29.62S
6HR MIN TEMP:  39; 6HR MAX TEMP:  40; 6HR PCP:  0.11;

LANSING*       LGT RAIN  37  37 100 NE5       29.62S
JOLIET*        DRIZZLE   39  39  99 NE3       29.61F
WAUKEGAN       CLOUDY    37  37 100 NE8       29.64F FOG
6HR MIN TEMP:  37; 6HR MAX TEMP:  37; 6HR PCP:  0.30;

DUPAGE AIRPORT CLOUDY    38  36  92 E9        29.61F FOG
6HR MIN TEMP:  38; 6HR MAX TEMP:  39; 6HR PCP:  0.07;

WHEELING       CLOUDY    38  37  97 E7        29.64F
6HR MIN TEMP:  37; 6HR MAX TEMP:  38; 6HR PCP:  0.16;

KANKAKEE*      LGT RAIN  38  38  97 CALM      29.61S
MORRIS*        LGT RAIN  37  36  97 CALM      29.61S
LEWIS AIRPORT* DRIZZLE   37  37 100 E10       29.61F
NORTHERLY ISL    N/A     36  35  96 N5          N/A
$$

WIZ051-052-058>065-066-070>072-201300-
SOUTHEAST WISCONSIN

CITY           SKY/WX    TMP DP  RH WIND       PRES   REMARKS
MILWAUKEE      LGT RAIN  38  37  97 E8        29.67S FOG
6HR MIN TEMP:  38; 6HR MAX TEMP:  38; 6HR PCP:  0.36;

KENOSHA*       LGT RAIN  37  36  96 E9        29.65S FOG
RACINE*        LGT RAIN  37  36  96 E10       29.66F FOG
WAUKESHA       LGT RAIN  34  34 100 E6        29.67S WCI  29
WEST BEND      DRZL/FOG  34  34 100 E7        29.67R VSB 1   WCI  28
$$

INZ001>003-010>013-019-020-201300-
NORTHWEST INDIANA

CITY           SKY/WX    TMP DP  RH WIND       PRES   REMARKS
GARY*          LGT RAIN  39  39 100 NE6       29.62F
MICHIGAN CITY* NOT AVBL
RENSSELAER*    NOT AVBL
VALPARAISO     LGT RAIN  39  38  96 NE5       29.61S FOG
$$

LMZ740>746-201300-
SOUTHERN LAKE MICHIGAN

STATION/POSITION TIME  SKY/WX   TEMP WIND        PRES    VSBY
                                AIR  DIR/SP/G
                 (UTC)          (F)  (DEG/KT/KT) (MB)    (MI)
HARRISON CRIB    1140            38   70/ 12/ 13   N/A
BURNHAM HARBOR   1200            36  360/  4/  7   N/A
CALUMET HARBOR   1130            36   10/  7/ 10 1002.6F
BURNS HARBOR     1140            34   80/  6/  8 1003.7S
MICHIGAN CITY    1140            34   40/  8/  9   N/A
$$

ABBREVIATIONS USED IN REMARKS
   TC - TEMPERATURE IN CELSIUS
  WCI - WIND CHILL INDEX
   HX - HEAT INDEX
  VSB - VISIBILITY
$$




USA.gov is the U.S. government's official web portal to all federal, state and local government web resources and services.